Weather Roundup
Issued by NWS

Home | Current Version | Previous Version | Graphics & Text | Print | Product List | Glossary Off
Versions: 1 2 3 4 5 6 7 8 9 10 11 12 13 14 15 16 17 18 19 20 21 22 23 24 25 26 27 28 29 30 31 32 33 34 35 36 37 38 39 40 41 42 43 44 45 46 47 48 49 50

000
NZUS93 KARX 180110
HRRWXR

CURRENT HOURLY OBSERVATIONS ACROSS
MUCH OF THE UPPER MISSISSIPPI VALLEY
NATIONAL WEATHER SERVICE LA CROSSE WI
800 PM CDT FRI APR 17 2015


...SOUTHEAST MINNESOTA...


CITY           SKY/WX    TMP DP  RH WIND       PRES   REMARKS
ROCHESTER      MOCLDY    65  45  48 NW8       30.01S
ROCHESTER/MAYO FAIR      71  44  37 NW3       30.01R
WINONA         PTCLDY    70  45  40 NW3       29.98S
AUSTIN         MOCLDY    70  45  40 NW3       30.01S
ALBERT LEA     MOCLDY    70  41  35 CALM      30.01S
DODGE CENTER   MOCLDY    66  45  45 NW6       30.02R
PRESTON        PTCLDY    67  44  42 W6        30.01S
OWATONNA       MOCLDY    66  37  34 N7        30.01S
FARIBAULT      PTCLDY    70  37  30 N3        30.02R
$$

...ELSEWHERE IN MINNESOTA...


CITY           SKY/WX    TMP DP  RH WIND       PRES   REMARKS
MINNEAPOLIS    PTCLDY    68  27  21 NW9       30.01S
INTNL FALLS    CLEAR     57  22  25 N14G23    30.03R
DULUTH         CLEAR     66  23  19 NW9       29.98S
RED WING       PTCLDY    70  34  26 N5        29.99S
REDWOOD FALLS  PTCLDY    70  23  17 N6        30.02S
MANKATO        PTCLDY    70  37  30 N7        30.01S
WORTHINGTON    CLOUDY    68  34  28 N7        30.04S
FAIRMONT       CLOUDY    70  37  30 MISG      30.01F
$$

...SOUTHWEST WISCONSIN...


CITY           SKY/WX    TMP DP  RH WIND       PRES   REMARKS
LA CROSSE      PTCLDY    68  47  46 CALM      29.97S
PRAIRIE DU CHI PTCLDY    72  41  32 CALM      29.98R
BOSCOBEL       PTCLDY    68  44  42 CALM      29.98R
LONE ROCK      PTCLDY    68  45  43 NW3       29.97S
PLATTEVILLE    PTCLDY    70  47  43 CALM      29.99S
FORT MC COY    CLEAR     67  40  38 CALM      29.99R
CAMP DOUGLAS   PTCLDY    63  43  48 W5        29.97S
VIROQUA        FAIR      69  40  34 NW3       30.00S
WIS DELLS      CLEAR     70  38  31 W3        29.97S
$$

...ELSEWHERE IN WISCONSIN...


CITY           SKY/WX    TMP DP  RH WIND       PRES   REMARKS
MILWAUKEE      PTCLDY    49  38  65 CALM      30.00S
MADISON        PTCLDY    70  45  40 CALM      29.97S
GREEN BAY      CLEAR     62  45  53 S6        29.96S
EAU CLAIRE     CLEAR     65  35  33 NW6       29.99S
BLACK RVR FLS  FAIR      66  39  37 CALM      29.97S
MEDFORD        CLEAR     63  38  39 W6        29.99S
WAUSAU         CLEAR     65  40  39 W9        29.96R
WIS RAPIDS     CLEAR     69  39  33 NW3       29.98S
MARSHFIELD     CLEAR     66  43  43 NW6       29.98S
RICE LAKE      PTCLDY    64  31  28 W3        30.02S
$$

...NORTHEAST IOWA...


CITY           SKY/WX    TMP DP  RH WIND       PRES   REMARKS
DECORAH        PTCLDY    70  43  37 CALM      30.00R
MASON CITY     CLOUDY    67  47  48 N6        30.02S
CHARLES CITY   MOCLDY    70  45  40 N6        30.01S
OELWEIN        CLOUDY    72  48  43 CALM      30.00S
$$

...ELSEWHERE IN IOWA...


CITY           SKY/WX    TMP DP  RH WIND       PRES   REMARKS
DES MOINES     CLOUDY    75  50  41 S5        29.99R
IOWA CITY      MOCLDY    68  53  58 CALM      30.00R
FORT DODGE     CLOUDY    72  45  37 N6        30.01S
$$

...NORTHERN ILLINOIS...


CITY           SKY/WX    TMP DP  RH WIND       PRES   REMARKS
CHICAGO-OHARE  PTCLDY    69  45  41 SE6       29.98S
CHICAGO-MIDWAY MOCLDY    70  45  40 E8        29.99S
MOLINE         MOCLDY    67  51  56 CALM      29.97R
ROCKFORD       MOCLDY    71  48  43 CALM      30.01R
PEORIA         CLEAR     74  51  44 CALM      29.98S
$$

NOTE: "FAIR" INDICATES FEW OR NO CLOUDS BELOW 12,000 FEET WITH NO
SIGNIFICANT WEATHER AND/OR OBSTRUCTIONS TO VISIBILITY. WIND
SPEEDS ARE IN MILES-PER-HOUR.



USA.gov is the U.S. government's official web portal to all federal, state and local government web resources and services.